DELTA 1 DEB, 42583

Orbit data source: Space-Track

DELTA 1 DEB, 42583 is space debris in SSO originally from a launch on Tue, 06 Nov 1973 UTC launched from the Air Force Western Test Range (AFWTR). Debris objects in space refer to the collection of defunct objects orbiting the Earth. Examples of debris include non-operational satellites, rocket bodies, and fragments generated from explosions, collisions, or faulty payload assembly.

Loading next visibility...
Identifier
42583, 1973-086HX
Orbit
SSO
Country
Flag of USUS
Related business
Manufacturer
Unknown
Mission
Spacecraft
Bus & Motor
Unknown
Mass
Unknown
Launch date (UTC)
1973-11-06 (52 years ago)
Launch vehicle
Unknown
Launch site
Air Force Western Test Range (AFWTR)
Object type
Payload
Rocket body
Debris
Shape & HBR
Unknown shape, 0.1 m
Radar Cross Section
Small (<0.1 m²)

Expand to show TLE details & history
Last TLE update: 1 day ago

TLE from 1 day ago
0 DELTA 1 DEB
1 42583U 73086HX  25299.42422540  .00000235  00000-0  22000-2 0  9992
2 42583 101.8350 292.1262 0091525 199.6032 160.1500 12.34614065495506
Epoch: 2025-10-26T10:10Z
TLE epoch observation values (Epoch: 2025-10-26T10:10:53.074Z)
Latitude
-0.00003°
Longitude
104.36444°
Altitude
1,600.227 km
Speed
7.039 km/s
True Right ascension
19h 28m 30s
True Declination
0° 00' 00"
Sunlit
Object was in daylight at epoch
Visualization orbit readout
Latitude
Unknown
Longitude
Unknown
Altitude
Unknown
Speed
Unknown
Apparent Right ascension
Unknown
Apparent Declination
Unknown
Sunlit
N/A
Visualization observer readout
Local Sidereal Time
12:01:39
Azimuth
Unknown
Elevation
Unknown
Doppler factor
Unknown
Orbital elements
Apogee altitude
1,599.442 km
Perigee altitude
1,454.737 km
Semi-major axis
7,905.226 km
Eccentricity
0.00915
Inclination
101.835°
RAAN
292.1262°
Arg. of periapsis
199.6032°
True anomaly
160.50233°
Mean anomaly
160.15°
Eccentric anomaly
160.32654°
Mean motion
3.08796 °/min
Orbital period
116.58 mins
BSTAR
0.0022
Loading maneuver chart data...
Computing Atmospheric mass density...
Loading historical data...
Loading historical data...
Loading historical data...
Loading historical data...
Loading historical data...
Loading historical data...
Loading historical data...

Documentation

Showing up to 5 results
|